Date/        TT  R.A.(2000) Decl.     Delta   r     Daily motion  Mag.  Moon Age
              h    h  m       。  ,                      ,  / PA 。  m1      。
2008 Dec. 10 18  09 49.30  +36 06.0   1.182  1.874    25.4 /  55  19.1   84  .94
          11 18  09 51.02  +36 20.5   1.165  1.865    25.6 /  54  19.0   71  .98
          12 18  09 52.75  +36 35.5   1.148  1.855    25.9 /  53  19.0   57 1.00
          13 18  09 54.48  +36 50.8   1.132  1.846    26.1 /  53  18.9   44  .98
          14 18  09 56.22  +37 06.6   1.116  1.837    26.4 /  52  18.9   33  .94
          15 18  09 57.96  +37 22.8   1.100  1.828    26.7 /  51  18.8   26  .87
          16 18  09 59.71  +37 39.5   1.084  1.818    27.0 /  50  18.8   25  .78
          17 18  10 01.47  +37 56.7   1.068  1.809    27.3 /  50  18.7   31  .68
          18 18  10 03.24  +38 14.3   1.052  1.800    27.6 /  49  18.7   40  .57
          19 18  10 05.02  +38 32.5   1.037  1.790    28.0 /  48  18.6   50  .47
          20 18  10 06.80  +38 51.1   1.021  1.781    28.3 /  47  18.6   61  .37
          21 18  10 08.60  +39 10.2   1.006  1.772    28.7 /  47  18.5   72  .27
          22 18  10 10.40  +39 29.8   0.991  1.762    29.1 /  46  18.4   83  .19
          23 18  10 12.21  +39 50.0   0.976  1.753    29.5 /  45  18.4   93  .12
          24 18  10 14.04  +40 10.7   0.962  1.743    29.9 /  45  18.3  104  .07
          25 18  10 15.88  +40 31.9   0.947  1.734    30.3 /  44  18.3  114  .03
          26 18  10 17.73  +40 53.6   0.933  1.725    30.7 /  43  18.2  123  .01
          27 18  10 19.59  +41 16.0   0.919  1.715    31.1 /  43  18.2  132  .00
          28 18  10 21.47  +41 38.8   0.905  1.706    31.6 /  42  18.1  140  .01
          29 18  10 23.36  +42 02.3   0.891  1.696    32.0 /  41  18.0  146  .04
          30 18  10 25.27  +42 26.3   0.877  1.687    32.5 /  41  18.0  149  .09
          31 18  10 27.19  +42 50.8   0.864  1.677    33.0 /  40  17.9  148  .15
2009 Jan.  1 18  10 29.14  +43 16.0   0.851  1.668    33.5 /  40  17.9  143  .23
           2 18  10 31.10  +43 41.7   0.838  1.658    34.0 /  39  17.8  135  .32
           3 18  10 33.09  +44 08.0   0.825  1.649    34.5 /  39  17.8  126  .42
           4 18  10 35.10  +44 34.9   0.812  1.639    35.0 /  38  17.7  116  .53
           5 18  10 37.13  +45 02.4   0.799  1.630    35.5 /  38  17.6  105  .64
           6 18  10 39.19  +45 30.5   0.787  1.620    36.1 /  37  17.6   93  .74
           7 18  10 41.27  +45 59.2   0.775  1.611    36.6 /  37  17.5   81  .84
           8 18  10 43.39  +46 28.5   0.763  1.601    37.2 /  36  17.5   70  .91
           9 18  10 45.54  +46 58.4   0.751  1.592    37.7 /  36  17.4   59  .97
          10 18  10 47.72  +47 28.8   0.740  1.582    38.3 /  36  17.3   49 1.00
          11 18  10 49.94  +47 59.9   0.728  1.573    38.8 /  35  17.3   42  .99
          12 18  10 52.20  +48 31.5   0.717  1.563    39.4 /  35  17.2   39  .96
          13 18  10 54.50  +49 03.7   0.706  1.554    40.0 /  35  17.2   41  .90
          14 18  10 56.84  +49 36.5   0.695  1.544    40.6 /  34  17.1   46  .83
          15 18  10 59.23  +50 09.9   0.685  1.535    41.2 /  34  17.0   54  .74
          16 18  11 01.67  +50 43.8   0.674  1.525    41.7 /  34  17.0   62  .64
          17 18  11 04.16  +51 18.3   0.664  1.515    42.3 /  34  16.9   71  .54
          18 18  11 06.71  +51 53.3   0.654  1.506    42.9 /  34  16.9   80  .44
          19 18  11 09.32  +52 28.8   0.644  1.496    43.4 /  34  16.8   89  .34
          20 18  11 12.00  +53 04.9   0.635  1.487    44.0 /  34  16.7   98  .26
          21 18  11 14.74  +53 41.4   0.625  1.477    44.6 /  34  16.7  106  .18
          22 18  11 17.56  +54 18.4   0.616  1.468    45.1 /  34  16.6  114  .11
          23 18  11 20.47  +54 55.8   0.607  1.458    45.6 /  34  16.6  120  .06
          24 18  11 23.45  +55 33.6   0.598  1.449    46.2 /  34  16.5  126  .02
          25 18  11 26.54  +56 11.8   0.589  1.439    46.7 /  34  16.4  129  .00
          26 18  11 29.72  +56 50.3   0.581  1.430    47.2 /  34  16.4  131  .00
          27 18  11 33.01  +57 29.2   0.573  1.420    47.7 /  34  16.3  130  .02
          28 18  11 36.42  +58 08.3   0.565  1.411    48.1 /  35  16.3  127  .06
          29 18  11 39.95  +58 47.6   0.557  1.401    48.6 /  35  16.2  122  .11
          30 18  11 43.62  +59 27.2   0.549  1.392    49.0 /  36  16.1  116  .18
          31 18  11 47.43  +60 06.9   0.541  1.383    49.5 /  36  16.1  109  .27
     Feb.  1 18  11 51.41  +60 46.7   0.534  1.373    49.9 /  37  16.0  101  .37
NAKANO
         **** Don't distribute anyone except personal use only ****
                (C) Copyright 2008 OAA/ComputingSection
write mail from CFAD0::NAKANO on 2008-12-10 00:08:46(JST).

    P/2004 CB (LINEAR)                                                    

Epoch 2004 Mar. 16.0 TT = JDT 2453080.5  

T 2004 Apr. 2.16323 TT                                  Nakano

q   0.9121810            (2000.0)            P               Q

n   0.19583263     Peri.  149.65571     -0.78191788     +0.54602676

a   2.9368336      Node    66.48749     -0.61727823     -0.61083729

e   0.6893998      Incl.   19.14724     -0.08701726     -0.57335206

P   5.03 (+/- 0.03 day)

From 306 observations 2004 Feb. 3-Apr. 16, mean residual 0".39.




NAKANO

         **** Don't distribute anyone except personal use only ****

                (C) Copyright 2004 OAA/ComputingSection

write mail from CFAD0::NAKANO on 2004-04-24 06:00:27(JST).

 

◎P/2004 CBの軌道と予報位置です



  上尾の門田健一氏から3月31日の観測が報告されました.氏のCCD全光度は,

16.4等でした.雄踏の和久田俊一氏から2月27日の観測が報告されていました.

氏の光度は16.7等でした.





    P/2004 CB (LINEAR)                                                    

Epoch 2004 Mar. 16.0 TT = JDT 2453080.5  

T 2004 Apr. 2.16285 TT                                  Nakano

q   0.9121815            (2000.0)            P               Q

n   0.19579934     Peri.  149.65514     -0.78191372     +0.54602724

a   2.9371665      Node    66.48827     -0.61728427     -0.61083258

e   0.6894349      Incl.   19.14779     -0.08701190     -0.57335662

P   5.03 (+/- 0.05 day)

From 278 observations 2004 Feb. 3-Mar. 31, mean residual 0".35.

 

Date/        TT  R.A.(2000) Decl.     Delta   r     Daily motion  Mag.  Moon Age

              h    h  m       。  ,                      ,  / PA 。  m1      。

2004 Apr.  1 18  20 21.97  +01 23.9   0.445  0.912    81.9 / 130  16.3  150  .84

           2 18  20 26.17  +00 31.6   0.449  0.912    80.7 / 129  16.4  143  .91

           3 18  20 30.33  -00 19.6   0.454  0.912    79.6 / 129  16.4  133  .96

           4 18  20 34.45  -01 09.8   0.458  0.913    78.4 / 129  16.4  122  .99

           5 18  20 38.54  -01 58.8   0.463  0.914    77.3 / 128  16.4  110 1.00

           6 18  20 42.58  -02 46.7   0.468  0.915    76.1 / 128  16.5   97  .98

           7 18  20 46.59  -03 33.4   0.473  0.916    74.9 / 128  16.5   84  .93

           8 18  20 50.56  -04 19.0   0.478  0.917    73.8 / 127  16.5   71  .86

           9 18  20 54.50  -05 03.5   0.483  0.919    72.6 / 127  16.6   58  .76

          10 18  20 58.40  -05 46.9   0.488  0.921    71.4 / 126  16.6   45  .66

          11 18  21 02.26  -06 29.1   0.493  0.923    70.3 / 126  16.6   33  .55

          12 18  21 06.09  -07 10.3   0.498  0.926    69.1 / 125  16.7   21  .43

          13 18  21 09.88  -07 50.3   0.504  0.928    68.0 / 125  16.7   14  .33

          14 18  21 13.63  -08 29.2   0.509  0.931    66.9 / 125  16.7   16  .23

          15 18  21 17.35  -09 07.1   0.514  0.934    65.8 / 124  16.8   25  .15

          16 18  21 21.03  -09 44.0   0.520  0.938    64.7 / 124  16.8   36  .08

          17 18  21 24.67  -10 19.8   0.525  0.941    63.6 / 123  16.8   47  .03

          18 18  21 28.28  -10 54.7   0.531  0.945    62.5 / 123  16.9   59  .01

          19 18  21 31.84  -11 28.6   0.536  0.949    61.4 / 123  16.9   71  .00

          20 18  21 35.37  -12 01.5   0.542  0.953    60.4 / 122  17.0   82  .01

          21 18  21 38.87  -12 33.5   0.547  0.958    59.3 / 122  17.0   93  .05

          22 18  21 42.32  -13 04.7   0.553  0.962    58.3 / 121  17.0  105  .09

          23 18  21 45.73  -13 35.0   0.558  0.967    57.3 / 121  17.1  116  .15

          24 18  21 49.11  -14 04.5   0.564  0.972    56.3 / 121  17.1  127  .23

          25 18  21 52.45  -14 33.1   0.569  0.977    55.4 / 120  17.2  138  .31

          26 18  21 55.74  -15 01.1   0.574  0.982    54.4 / 120  17.2  150  .41

          27 18  21 59.00  -15 28.2   0.580  0.988    53.5 / 120  17.3  161  .50

          28 18  22 02.21  -15 54.7   0.585  0.993    52.5 / 120  17.3  173  .60

          29 18  22 05.39  -16 20.5   0.591  0.999    51.6 / 119  17.4  174  .70

          30 18  22 08.53  -16 45.6   0.596  1.005    50.7 / 119  17.4  162  .79

     May   1 18  22 11.62  -17 10.1   0.601  1.011    49.8 / 119  17.4  149  .87

NAKANO

         **** Don't distribute anyone except personal use only ****

                (C) Copyright 2004 OAA/ComputingSection

write mail from CFAD0::NAKANO on 2004-04-01 06:01:42(JST).

 

戻ります。